User: anonymous   Login
Location: Unspecified
(0.0000°N, 0.0000°E)
Time: 12:49:13
(UTC+00:00)
Language:

Intelsat 501 - Orbit

View from above orbital plane
View from above orbital plane
View from above satellite
View from above satellite

Ground track
Ground track

The orbit data is extracted from the following two-line orbital elements,

1 12474U 81050A   18200.43735406 -.00000002 +00000-0 +00000-0 0  9998
2 12474 014.8046 348.3014 0003778 212.7891 332.1233 00.98850462109101
Epoch (UTC): 19 July 2018 10:29:47
Eccentricity: 0.0003778
inclination: 14.8046°
perigee height: 36173 km
apogee height: 36205 km
right ascension of ascending node: 348.3014°
argument of perigee: 212.7891°
revolutions per day: 0.98850462
mean anomaly at epoch: 332.1233°
orbit number at epoch: 10910

The dashed part of the orbit path shows where the satellite is in the earth's shadow,  

DLR